This is the latest recevied weather packets stored in our database for station/object KM4CBK. If no packets are shown the sender has not sent any weather packets the latest 10 day(s).
| Time | Temp. | Humidity | Pressure | Rain* | Wind** | Luminosity | Snow |
|---|---|---|---|---|---|---|---|
| 1777985518 | 14.44° C | 91% | 1014.2 hPa | 0 mm | - | 45 W/m² | - |
| 1777985215 | 14.44° C | 92% | 1014.1 hPa | 0 mm | - | 50 W/m² | - |
| 1777984911 | 13.89° C | 94% | 1014.1 hPa | 0 mm | - | 45 W/m² | - |
| 1777984607 | 13.89° C | 94% | 1014.1 hPa | 0 mm | - | 34 W/m² | - |
| 1777984305 | 13.33° C | 93% | 1014.2 hPa | 0 mm | - | 31 W/m² | - |
| 1777984001 | 13.33° C | 95% | 1014.1 hPa | 0 mm | - | 37 W/m² | - |
| 1777983698 | 12.78° C | 97% | 1014.2 hPa | 0 mm | - | 35 W/m² | - |
| 1777983395 | 12.78° C | 99% | 1014.1 hPa | 0 mm | - | 34 W/m² | - |
| 1777983092 | 12.22° C | 99% | 1013.8 hPa | 0 mm | - | 29 W/m² | - |
| 1777982787 | 11.67° C | 99% | 1014.1 hPa | 0 mm | - | 24 W/m² | - |
| 1777982484 | 11.67° C | 99% | 1013.8 hPa | 0 mm | - | 21 W/m² | - |
| 1777982178 | 11.67° C | 99% | 1013.7 hPa | 0 mm | - | 22 W/m² | - |
| 1777981876 | 11.11° C | 99% | 1013.5 hPa | 0 mm | - | 21 W/m² | - |
| 1777981572 | 10.56° C | 99% | 1013.3 hPa | 0 mm | - | 28 W/m² | - |
| 1777981269 | 10° C | 99% | 1013.2 hPa | 0 mm | - | 21 W/m² | - |
| 1777980965 | 10° C | 99% | 1013.2 hPa | 0 mm | - | 17 W/m² | - |
| 1777980662 | 10° C | 99% | 1013.1 hPa | 0 mm | - | 15 W/m² | - |
| 1777980358 | 10° C | 99% | 1012.9 hPa | 0 mm | - | 11 W/m² | - |
| 1777980056 | 10° C | 99% | 1012.9 hPa | 0 mm | - | 12 W/m² | - |
| 1777979749 | 9.44° C | 99% | 1012.9 hPa | 0 mm | - | 9 W/m² | - |
| 1777979446 | 9.44° C | 99% | 1012.6 hPa | 0 mm | - | 5 W/m² | - |
| 1777979137 | 9.44° C | 99% | 1012.6 hPa | 0 mm | - | 2 W/m² | - |
| 1777978834 | 9.44° C | 99% | 1012.7 hPa | 0 mm | - | 0 W/m² | - |
| 1777978531 | 9.44° C | 99% | 1012.5 hPa | 0 mm | - | 0 W/m² | - |
| 1777978226 | 10° C | 99% | 1012.5 hPa | 0 mm | - | 0 W/m² | - |
* Rain latest hour (hover to see other rain measurements)
** Current wind speed in m/s (hover to see current wind gust speed)